EW7100 Weather Reports


time (UTC)temp
C
wind
direction
speed
KPH
gust
KPH
rain 1hr
cm
rain 24hr
cm
rain mn
cm
humidity
%
barometer
mb
20220124113745 -3 157 0.0 9.7 0.00 0.00 0.00 55 1011.3
20220124113243 -3 170 0.0 0.0 0.00 0.00 0.00 55 1011.4
20220124112743 -3 158 0.0 0.0 0.00 0.00 0.00 56 1011.3
20220124112245 -3 146 0.0 8.0 0.00 0.00 0.00 56 1011.4
20220124111742 -3 146 0.0 8.0 0.00 0.00 0.00 56 1011.5
20220124111243 -3 146 0.0 0.0 0.00 0.00 0.00 56 1011.4
20220124110743 -3 146 0.0 8.0 0.00 0.00 0.00 56 1011.5
20220124110242 -3 144 1.6 11.3 0.00 0.00 0.00 56 1011.5
20220124105744 -3 144 1.6 11.3 0.00 0.00 0.00 56 1011.7
20220124105243 -3 136 0.0 8.0 0.00 0.00 0.00 56 1011.7
20220124104743 -3 135 0.0 8.0 0.00 0.00 0.00 57 1011.7
20220124104243 -3 161 0.0 0.0 0.00 0.00 0.00 57 1011.7
20220124103740 -3 162 0.0 0.0 0.00 0.00 0.00 57 1011.8
20220124103241 -3 162 0.0 0.0 0.00 0.00 0.00 57 1011.9
20220124102740 -3 162 0.0 0.0 0.00 0.00 0.00 57 1011.9
20220124102241 -3 162 0.0 0.0 0.00 0.00 0.00 57 1011.9
20220124101741 -3 162 0.0 0.0 0.00 0.00 0.00 57 1011.8
20220124101241 -3 162 0.0 0.0 0.00 0.00 0.00 57 1011.8
20220124100743 -3 162 0.0 0.0 0.00 0.00 0.00 56 1011.9
20220124100241 -3 163 0.0 0.0 0.00 0.00 0.00 57 1011.8
20220124095741 -3 163 0.0 0.0 0.00 0.00 0.00 56 1011.9
20220124095240 -3 163 0.0 0.0 0.00 0.00 0.00 56 1011.9
20220124094741 -3 163 0.0 6.4 0.00 0.00 0.00 56 1012.0
20220124094241 -3 173 1.6 12.9 0.00 0.00 0.00 56 1012.0
20220124093740 -3 198 1.6 12.9 0.00 0.00 0.00 56 1012.0
20220124093240 -3 140 1.6 11.3 0.00 0.00 0.00 56 1012.0
20220124092741 -3 139 1.6 11.3 0.00 0.00 0.00 55 1012.1
20220124092240 -3 152 0.0 8.0 0.00 0.00 0.00 55 1012.0
20220124091740 -2 199 0.0 3.2 0.00 0.00 0.00 54 1012.1
20220124091241 -2 140 0.0 11.3 0.00 0.00 0.00 54 1012.1
20220124090741 -2 140 0.0 11.3 0.00 0.00 0.00 55 1012.0
20220124090240 -2 134 0.0 6.4 0.00 0.00 0.00 55 1012.0
20220124085740 -2 134 0.0 6.4 0.00 0.00 0.00 55 1012.0
20220124085242 -2 133 0.0 4.8 0.00 0.00 0.00 55 1012.1
20220124084741 -2 133 0.0 4.8 0.00 0.00 0.00 55 1012.0
20220124084241 -2 132 0.0 3.2 0.00 0.00 0.00 55 1012.1
20220124083741 -2 132 1.6 8.0 0.00 0.00 0.00 54 1012.0
20220124083240 -2 132 0.0 8.0 0.00 0.00 0.00 54 1011.9
20220124082741 -2 176 0.0 3.2 0.00 0.00 0.00 54 1011.8
20220124082241 -2 185 0.0 6.4 0.00 0.00 0.00 54 1011.9
20220124081741 -2 184 0.0 6.4 0.00 0.00 0.00 55 1011.8
20220124081240 -2 144 0.0 4.8 0.00 0.00 0.00 55 1011.8
20220124080741 -2 145 0.0 11.3 0.00 0.00 0.00 55 1011.8
20220124080239 -2 145 1.6 11.3 0.00 0.00 0.00 55 1011.9
20220124075744 -2 145 1.6 9.7 0.00 0.00 0.00 55 1011.9
20220124075238 -2 145 1.6 8.0 0.00 0.00 0.00 54 1011.9
20220124074739 -2 145 0.0 8.0 0.00 0.00 0.00 55 1011.9
20220124074238 -2 144 0.0 0.0 0.00 0.00 0.00 55 1011.8
20220124073739 -2 144 0.0 0.0 0.00 0.00 0.00 55 1011.8
20220124073238 -2 144 0.0 0.0 0.00 0.00 0.00 55 1011.8
20220124072739 -2 144 0.0 0.0 0.00 0.00 0.00 54 1011.9
20220124072238 -2 144 0.0 0.0 0.00 0.00 0.00 54 1012.0
20220124071749 -2 144 0.0 0.0 0.00 0.00 0.00 54 1012.0
20220124071244 -2 144 0.0 0.0 0.00 0.00 0.00 54 1012.1
20220124070742 -2 144 0.0 0.0 0.00 0.00 0.00 54 1012.1
20220124070236 -2 144 0.0 6.4 0.00 0.00 0.00 54 1012.1
20220124065738 -2 144 0.0 6.4 0.00 0.00 0.00 54 1012.1
20220124065238 -2 144 0.0 0.0 0.00 0.00 0.00 54 1012.1
20220124064738 -2 144 0.0 0.0 0.00 0.00 0.00 54 1012.2
20220124064236 -2 144 0.0 6.4 0.00 0.00 0.00 54 1012.0
20220124063737 -2 144 0.0 8.0 0.00 0.00 0.00 54 1012.1
20220124063240 -2 135 0.0 8.0 0.00 0.00 0.00 55 1012.1
20220124062736 -2 132 0.0 0.0 0.00 0.00 0.00 55 1012.4
20220124062236 -2 132 0.0 0.0 0.00 0.00 0.00 54 1012.1
20220124061736 -2 132 0.0 0.0 0.00 0.00 0.00 54 1012.1
20220124061237 -2 132 0.0 0.0 0.00 0.00 0.00 54 1012.2
20220124060736 -1 132 0.0 6.4 0.00 0.00 0.00 54 1012.2
20220124060236 -1 132 0.0 6.4 0.00 0.00 0.00 54 1012.2
20220124055736 -1 132 0.0 6.4 0.00 0.00 0.00 53 1012.2
20220124055236 -1 128 0.0 6.4 0.00 0.00 0.00 53 1012.2
20220124054735 -1 127 0.0 6.4 0.00 0.00 0.00 53 1012.2
20220124054232 -1 141 0.0 8.0 0.00 0.00 0.00 53 1012.2
20220124053734 -1 141 0.0 8.0 0.00 0.00 0.00 53 1012.2
20220124053232 -1 159 0.0 0.0 0.00 0.00 0.00 53 1012.4
20220124052733 -1 160 0.0 0.0 0.00 0.00 0.00 53 1012.4
20220124052233 -1 160 0.0 0.0 0.00 0.00 0.00 53 1012.6
20220124051733 -1 159 0.0 0.0 0.00 0.00 0.00 52 1012.5
20220124051231 -1 160 0.0 8.0 0.00 0.00 0.00 53 1012.5
20220124050730 -1 160 0.0 8.0 0.00 0.00 0.00 53 1012.5
20220124050229 -1 138 0.0 3.2 0.00 0.00 0.00 53 1012.6
20220124045729 -1 137 0.0 8.0 0.00 0.00 0.00 53 1012.7
20220124045228 -1 132 0.0 8.0 0.00 0.00 0.00 53 1012.8
20220124044726 -1 180 0.0 0.0 0.00 0.00 0.00 54 1013.0
20220124044226 -1 194 0.0 0.0 0.00 0.00 0.00 54 1012.8
20220124043724 -1 210 0.0 6.4 0.00 0.00 0.00 54 1012.8
20220124043224 -1 211 0.0 6.4 0.00 0.00 0.00 55 1013.0
20220124042724 -1 134 0.0 0.0 0.00 0.00 0.00 55 1013.0
20220124042224 -1 134 0.0 0.0 0.00 0.00 0.00 55 1013.1
20220124041724 -1 134 0.0 0.0 0.00 0.00 0.00 54 1013.0
20220124041224 -1 134 0.0 0.0 0.00 0.00 0.00 54 1013.0
20220124040725 -1 134 0.0 3.2 0.00 0.00 0.00 54 1013.1
20220124040224 -1 132 0.0 3.2 0.00 0.00 0.00 54 1013.3
20220124035722 -1 63 0.0 0.0 0.00 0.00 0.00 54 1013.2
20220124035224 -1 63 0.0 0.0 0.00 0.00 0.00 53 1013.3
20220124034722 -1 63 0.0 0.0 0.00 0.00 0.00 53 1013.2
20220124034222 -1 59 0.0 0.0 0.00 0.00 0.00 53 1013.2
20220124033722 -1 54 0.0 0.0 0.00 0.00 0.00 53 1013.2
20220124033222 -1 47 0.0 0.0 0.00 0.00 0.00 53 1013.3
20220124032722 0 46 0.0 0.0 0.00 0.00 0.00 53 1013.3
20220124032223 0 32 0.0 0.0 0.00 0.00 0.00 52 1013.4
20220124031722 0 32 0.0 0.0 0.00 0.00 0.00 52 1013.4
20220124031223 0 32 0.0 0.0 0.00 0.00 0.00 52 1013.4
20220124030720 0 32 0.0 0.0 0.00 0.00 0.00 51 1013.5
20220124030220 0 32 0.0 0.0 0.00 0.00 0.00 51 1013.7
20220124025721 0 32 0.0 0.0 0.00 0.00 0.00 50 1013.8
20220124025220 0 32 0.0 0.0 0.00 0.00 0.00 50 1013.8
20220124024720 0 32 0.0 0.0 0.00 0.00 0.00 49 1013.7
20220124024220 0 32 0.0 0.0 0.00 0.00 0.00 49 1013.7
20220124023720 0 32 0.0 0.0 0.00 0.00 0.00 49 1013.7
20220124023222 0 32 0.0 0.0 0.00 0.00 0.00 48 1013.7
20220124022721 0 32 0.0 0.0 0.00 0.00 0.00 47 1013.7
20220124022220 0 32 0.0 0.0 0.00 0.00 0.00 46 1013.7
20220124021718 0 32 0.0 0.0 0.00 0.00 0.00 45 1013.5
20220124021218 1 32 0.0 0.0 0.00 0.00 0.00 45 1013.5
20220124020718 1 32 0.0 0.0 0.00 0.00 0.00 44 1013.5
20220124020218 1 32 0.0 0.0 0.00 0.00 0.00 43 1013.5
20220124015718 1 32 0.0 0.0 0.00 0.00 0.00 43 1013.5
20220124015219 1 32 0.0 0.0 0.00 0.00 0.00 42 1013.4
20220124014717 1 32 0.0 0.0 0.00 0.00 0.00 42 1013.4
20220124014218 2 32 0.0 0.0 0.00 0.00 0.00 41 1013.3
20220124013718 2 32 0.0 0.0 0.00 0.00 0.00 40 1013.3
20220124013219 2 32 0.0 0.0 0.00 0.00 0.00 40 1013.3
20220124012716 2 32 0.0 0.0 0.00 0.00 0.00 38 1013.3
20220124012216 2 32 0.0 0.0 0.00 0.00 0.00 37 1013.3
20220124011716 2 32 0.0 0.0 0.00 0.00 0.00 37 1013.3
20220124011217 3 32 0.0 0.0 0.00 0.00 0.00 37 1013.3
20220124010716 3 32 0.0 0.0 0.00 0.00 0.00 37 1013.2
20220124010216 3 32 0.0 0.0 0.00 0.00 0.00 36 1013.3
20220124005715 3 32 0.0 0.0 0.00 0.00 0.00 35 1013.3
20220124005216 4 32 0.0 0.0 0.00 0.00 0.00 34 1013.3
20220124004713 4 32 0.0 0.0 0.00 0.00 0.00 34 1013.3
20220124004214 5 32 0.0 0.0 0.00 0.00 0.00 33 1013.3
20220124003712 5 32 0.0 0.0 0.00 0.00 0.00 32 1013.3
20220124003213 5 32 0.0 0.0 0.00 0.00 0.00 30 1013.3
20220124002712 6 32 0.0 0.0 0.00 0.00 0.00 29 1013.3
20220124002210 6 32 0.0 0.0 0.00 0.00 0.00 28 1013.3
20220124001710 7 32 0.0 0.0 0.00 0.00 0.00 27 1013.2
20220124001209 7 32 0.0 0.0 0.00 0.00 0.00 25 1013.2
20220124000710 8 32 0.0 0.0 0.00 0.00 0.00 23 1013.3
20220124000211 8 32 0.0 0.0 0.00 0.00 0.00 22 1013.3
20220123235710 9 32 0.0 0.0 0.00 0.00 0.00 21 1013.3
20220123235212 9 32 0.0 0.0 0.00 0.00 0.00 19 1013.3
20220123234708 10 32 0.0 0.0 0.00 0.00 0.00 18 1013.3
20220123234208 10 32 0.0 0.0 0.00 0.00 0.00 16 1013.3
20220123233708 11 32 0.0 0.0 0.00 0.00 0.00 15 1013.2
20220123233208 11 32 0.0 0.0 0.00 0.00 0.00 14 1013.1
20220123232707 11 32 0.0 0.0 0.00 0.00 0.00 14 1013.1
20220123232208 12 32 0.0 0.0 0.00 0.00 0.00 14 1013.1
20220123231707 12 32 0.0 0.0 0.00 0.00 0.00 13 1013.1
20220123231207 12 32 0.0 0.0 0.00 0.00 0.00 13 1013.2
20220123230705 11 32 0.0 0.0 0.00 0.00 0.00 14 1013.2
20220123230205 11 32 0.0 0.0 0.00 0.00 0.00 14 1013.2
20220123225704 11 32 0.0 1.6 0.00 0.00 0.00 14 1013.2
20220123225203 11 32 0.0 1.6 0.00 0.00 0.00 13 1013.2
20220123224703 11 32 0.0 1.6 0.00 0.00 0.00 13 1013.2
20220123224205 11 32 0.0 3.2 0.00 0.00 0.00 14 1013.2
20220123223704 11 32 0.0 4.8 0.00 0.00 0.00 14 1013.2
20220123223203 11 32 1.6 4.8 0.00 0.00 0.00 16 1013.3
20220123222703 11 32 1.6 6.4 0.00 0.00 0.00 14 1013.4
20220123222203 11 32 1.6 6.4 0.00 0.00 0.00 14 1013.4
20220123221703 11 22 0.0 6.4 0.00 0.00 0.00 16 1013.4
20220123221204 11 135 0.0 6.4 0.00 0.00 0.00 15 1013.4
20220123220704 11 135 0.0 4.8 0.00 0.00 0.00 15 1013.4
20220123220204 11 144 1.6 6.4 0.00 0.00 0.00 15 1013.4
20220123215704 11 144 1.6 8.0 0.00 0.00 0.00 15 1013.5
20220123215205 11 161 1.6 11.3 0.00 0.00 0.00 16 1013.5
20220123214703 10 167 1.6 11.3 0.00 0.00 0.00 16 1013.5
20220123214203 10 143 1.6 9.7 0.00 0.00 0.00 16 1013.7
20220123213703 10 143 1.6 9.7 0.00 0.00 0.00 17 1013.8
20220123213203 10 155 3.2 12.9 0.00 0.00 0.00 17 1013.8
20220123212703 10 141 1.6 12.9 0.00 0.00 0.00 18 1014.0
20220123212203 10 199 1.6 12.9 0.00 0.00 0.00 19 1014.1
20220123211703 9 146 3.2 12.9 0.00 0.00 0.00 20 1014.1
20220123211204 9 140 1.6 12.9 0.00 0.00 0.00 20 1014.3
20220123210704 9 205 3.2 12.9 0.00 0.00 0.00 21 1014.4
20220123210203 9 165 3.2 11.3 0.00 0.00 0.00 21 1014.5
20220123205703 8 154 3.2 11.3 0.00 0.00 0.00 21 1014.5
20220123205203 8 182 4.8 12.9 0.00 0.00 0.00 21 1014.6
20220123204704 8 139 3.2 12.9 0.00 0.00 0.00 19 1014.8
20220123204204 8 156 1.6 12.9 0.00 0.00 0.00 20 1015.0
20220123203701 8 136 3.2 14.5 0.00 0.00 0.00 20 1015.1
20220123203205 8 145 3.2 14.5 0.00 0.00 0.00 19 1015.2
20220123202701 8 152 1.6 12.9 0.00 0.00 0.00 18 1015.3
20220123202200 8 193 1.6 12.9 0.00 0.00 0.00 17 1015.5
20220123201659 8 183 1.6 12.9 0.00 0.00 0.00 16 1015.8
20220123201203 8 142 0.0 12.9 0.00 0.00 0.00 16 1015.9
20220123200659 8 196 1.6 11.3 0.00 0.00 0.00 17 1016.1
20220123200200 8 165 1.6 11.3 0.00 0.00 0.00 16 1016.3
20220123195658 8 173 0.0 6.4 0.00 0.00 0.00 19 1016.4
20220123195158 8 183 0.0 3.2 0.00 0.00 0.00 17 1016.7
20220123194655 8 178 0.0 6.4 0.00 0.00 0.00 17 1016.8
20220123194156 8 176 0.0 9.7 0.00 0.00 0.00 18 1017.0
20220123193653 8 177 0.0 9.7 0.00 0.00 0.00 18 1017.1
20220123193153 7 119 1.6 8.0 0.00 0.00 0.00 19 1017.3
20220123192651 7 115 1.6 8.0 0.00 0.00 0.00 22 1017.3
20220123192152 7 206 1.6 8.0 0.00 0.00 0.00 21 1017.4
20220123191651 7 134 1.6 12.9 0.00 0.00 0.00 20 1017.6
20220123191151 7 136 3.2 12.9 0.00 0.00 0.00 20 1017.7
20220123190651 7 140 1.6 11.3 0.00 0.00 0.00 22 1017.7
20220123190150 6 201 1.6 8.0 0.00 0.00 0.00 22 1017.8
20220123185649 6 217 1.6 8.0 0.00 0.00 0.00 20 1018.0
20220123185147 6 173 1.6 8.0 0.00 0.03 0.00 22 1018.3
20220123184647 6 146 0.0 8.0 0.00 0.03 0.00 21 1018.5
20220123184145 6 153 0.0 3.2 0.00 0.03 0.00 24 1018.5
20220123183648 6 154 1.6 11.3 0.00 0.03 0.00 23 1018.6
20220123183145 6 163 1.6 11.3 0.00 0.03 0.00 23 1018.7
20220123182645 6 140 0.0 8.0 0.00 0.03 0.00 25 1019.0
20220123182145 5 157 0.0 9.7 0.00 0.03 0.00 25 1019.2
20220123181645 5 164 0.0 9.7 0.00 0.03 0.00 24 1019.3
20220123181145 5 215 0.0 6.4 0.00 0.03 0.00 25 1019.3
20220123180643 5 221 0.0 4.8 0.00 0.03 0.00 25 1019.4
20220123180147 5 106 0.0 0.0 0.00 0.05 0.00 27 1019.6
20220123175643 5 105 0.0 0.0 0.00 0.05 0.00 27 1019.6
20220123175143 5 186 0.0 0.0 0.00 0.05 0.00 27 1019.6
20220123174643 4 140 0.0 4.8 0.00 0.05 0.00 27 1019.6
20220123174143 4 194 0.0 6.4 0.00 0.08 0.00 29 1019.6
20220123173643 3 211 1.6 8.0 0.00 0.08 0.00 29 1019.7
20220123173144 3 199 0.0 8.0 0.00 0.10 0.00 30 1019.8
20220123172644 3 196 0.0 3.2 0.00 0.10 0.00 31 1019.9
20220123172144 3 206 0.0 6.4 0.00 0.10 0.00 33 1020.0
20220123171641 2 151 1.6 6.4 0.00 0.10 0.00 31 1020.0
20220123171143 2 205 0.0 8.0 0.00 0.10 0.00 32 1020.2
20220123170640 2 211 0.0 11.3 0.00 0.10 0.00 31 1020.3
20220123170140 2 142 0.0 11.3 0.00 0.10 0.00 33 1020.4
20220123165642 2 136 0.0 0.0 0.00 0.13 0.00 36 1020.5
20220123165141 1 136 0.0 0.0 0.00 0.13 0.00 38 1020.5
20220123164641 1 136 0.0 0.0 0.00 0.13 0.00 37 1020.6
20220123164143 1 136 0.0 0.0 0.00 0.13 0.00 40 1020.6
20220123163641 0 136 0.0 0.0 0.00 0.13 0.00 40 1020.6
20220123163141 0 136 0.0 0.0 0.00 0.13 0.00 40 1020.7
20220123162641 0 136 0.0 0.0 0.00 0.13 0.00 41 1020.7
20220123162141 0 136 0.0 0.0 0.00 0.13 0.00 43 1020.9
20220123161640 -1 136 0.0 0.0 0.00 0.13 0.00 45 1020.7
20220123161140 -1 136 0.0 0.0 0.00 0.13 0.00 47 1020.7
20220123160639 -2 136 0.0 0.0 0.00 0.13 0.00 49 1020.7
20220123160140 -2 136 0.0 0.0 0.00 0.13 0.00 49 1020.7
20220123155639 -3 136 0.0 0.0 0.00 0.13 0.00 51 1020.9
20220123155139 -3 136 0.0 0.0 0.00 0.13 0.00 52 1021.0
20220123154638 -3 136 0.0 0.0 0.00 0.13 0.00 55 1021.0
20220123154139 -4 136 0.0 0.0 0.00 0.13 0.00 56 1020.9
20220123153639 -5 136 0.0 0.0 0.00 0.13 0.00 58 1021.0
20220123153139 -5 136 0.0 0.0 0.00 0.13 0.00 58 1020.9
20220123152638 -5 136 0.0 0.0 0.00 0.13 0.00 58 1020.9
20220123152138 -5 136 0.0 0.0 0.00 0.13 0.00 59 1020.9
20220123151637 -5 136 0.0 0.0 0.00 0.13 0.00 59 1020.7
20220123151134 -5 136 0.0 0.0 0.00 0.13 0.00 58 1020.7
20220123150635 -5 136 0.0 0.0 0.00 0.13 0.00 58 1020.6
20220123150135 -5 136 0.0 0.0 0.00 0.13 0.00 58 1020.6
20220123145633 -5 136 0.0 0.0 0.00 0.13 0.00 57 1020.6
20220123145133 -5 136 0.0 0.0 0.00 0.13 0.00 56 1020.5
20220123144633 -5 136 0.0 0.0 0.00 0.13 0.00 56 1020.4
20220123144135 -5 136 0.0 0.0 0.00 0.13 0.00 56 1020.4
20220123143636 -5 136 0.0 0.0 0.00 0.13 0.00 57 1020.5
20220123143128 -6 136 0.0 0.0 0.00 0.13 0.00 58 1020.4
20220123142629 -6 136 0.0 0.0 0.00 0.13 0.00 58 1020.6
20220123142129 -6 136 0.0 0.0 0.00 0.13 0.00 59 1020.5
20220123141626 -6 136 0.0 0.0 0.00 0.13 0.00 59 1020.5
20220123141126 -6 136 0.0 0.0 0.00 0.13 0.00 60 1020.6
20220123140627 -6 136 0.0 0.0 0.00 0.13 0.00 60 1020.7
20220123140127 -6 136 0.0 0.0 0.00 0.13 0.00 59 1020.7
20220123135628 -6 136 0.0 0.0 0.00 0.13 0.00 60 1020.6
20220123135127 -6 136 0.0 0.0 0.00 0.13 0.00 60 1020.5
20220123134628 -6 136 0.0 0.0 0.00 0.13 0.00 60 1020.4
20220123134126 -6 136 0.0 0.0 0.00 0.13 0.00 61 1020.4
20220123133625 -6 136 0.0 0.0 0.00 0.13 0.00 61 1020.6
20220123133125 -6 136 0.0 0.0 0.00 0.13 0.00 62 1020.6
20220123132625 -6 136 0.0 0.0 0.00 0.13 0.00 63 1020.6
20220123132126 -6 136 0.0 0.0 0.00 0.13 0.00 64 1020.7
20220123131625 -6 136 0.0 0.0 0.00 0.13 0.00 63 1021.0
20220123131124 -6 136 0.0 0.0 0.00 0.13 0.00 63 1021.0
20220123130624 -6 136 0.0 0.0 0.00 0.13 0.00 62 1021.0
20220123130125 -6 136 0.0 0.0 0.00 0.13 0.00 63 1021.1
20220123125627 -6 136 0.0 0.0 0.00 0.13 0.00 62 1021.2
20220123125125 -6 136 0.0 0.0 0.00 0.13 0.00 62 1021.2
20220123124624 -6 136 0.0 0.0 0.00 0.13 0.00 61 1021.2
20220123124124 -6 136 0.0 0.0 0.00 0.13 0.00 60 1021.2
20220123123628 -6 136 0.0 0.0 0.00 0.13 0.00 61 1021.1
20220123123124 -6 136 0.0 0.0 0.00 0.13 0.00 61 1021.1
20220123122624 -6 136 0.0 0.0 0.00 0.13 0.00 60 1021.1
20220123122124 -6 136 0.0 0.0 0.00 0.13 0.00 60 1021.1
20220123121625 -6 136 0.0 0.0 0.00 0.13 0.00 60 1021.3
20220123121126 -5 136 0.0 0.0 0.00 0.13 0.00 59 1021.3
20220123120624 -5 136 0.0 0.0 0.00 0.13 0.00 59 1021.3
20220123120125 -5 136 0.0 0.0 0.00 0.13 0.00 58 1021.3
20220123115626 -5 136 0.0 0.0 0.00 0.13 0.00 57 1021.6
20220123115124 -5 136 0.0 0.0 0.00 0.13 0.00 56 1021.6
20220123114625 -4 136 0.0 0.0 0.00 0.13 0.00 56 1021.3
20220123114124 -4 136 0.0 0.0 0.00 0.13 0.00 56 1021.5